Simultaneous Nadir Overpasses (SNOs) Predictions

Prediction of SNOs between GOES-14 and NOAA-20 Satellite Orbit:

Table of predicted SNOs for the next 14.0 days since TLE Epoch: 1/8/2022
Index Date Time (GOES-14) GOES-14 Lat,Lon NOAA-20 Lat,Lon Distance(km) Time Diff (sec)
1 01/08/2022 20:32:20 0.01,-104.24 -0.67,-107.13 330.84 80
2 01/09/2022 20:16:14 0.00,-104.24 0.36,-102.60 186.98 80
3 01/11/2022 08:35:21 -0.01,-104.58 0.73,-107.88 375.35 80
4 01/12/2022 08:19:16 -0.00,-104.59 -0.30,-103.34 142.34 80
5 01/13/2022 20:38:29 0.01,-104.26 -0.97,-108.62 497.03 80
6 01/14/2022 20:22:24 0.00,-104.26 0.07,-104.09 20.76 80
7 01/17/2022 08:22:45 0.00,-104.61 0.05,-104.82 24.23 80
8 01/18/2022 08:06:39 0.01,-104.61 -0.98,-100.29 493.29 80
9 01/19/2022 20:28:32 -0.00,-104.28 -0.28,-105.56 146.06 80
10 01/20/2022 20:09:46 -0.01,-104.28 0.70,-101.02 371.48 80
